sat.trackr.live / text

‹ back to catalog

STARLINK-5881

NORAD 57054 · 2023-088G

PAYLOAD ACTIVE UNKNOWN

§ Identity

Operator
Country
US
Launch date
2023-06-22
Launch site
AFWTR
Launch vehicle
Mass (kg)
RCS (m²)

Purposes: comms

External: N2YO · Heavens-Above · Gunter

§ Orbital elements

Epoch: 2026-09-20T15:50:37.539744Z

Period
94.27 min
Inclination
43.0020°
Eccentricity
0.0001518
Mean motion
15.27579346 rev/d
Perigee alt
482.0 km
Apogee alt
484.1 km
Semi-major
6,861.2 km
B*
4.1478e-5
RAAN
89.3130°
Arg perigee
257.3502°
Mean anomaly
102.7180°
Rev number
18,015

§ Raw data

STARLINK-58811 57054U 23088G   26263.66015671  .00000879  00000+0  41478-4 0  99942 57054  43.0020  89.3130 0001518 257.3502 102.7180 15.27579346180158

JSON: /api/v1/satellites/57054 · /tle

For live sub-satellite position, see the globe view (requires WebGL).

§ Visibility from observer

Set your observer location to see the next 7 days of passes ≥ 10°. The values pass through the URL so the page stays shareable.

No JS? Fill the form by hand. The geolocation button needs JavaScript.